When you browse on this site, cookies collect data to enhance your experience and personalize the content and advertising you see.
Visit our Privacy Policy to learn more. By continuing to use the site, you agree to this use of cookies and data.
  • In Latvia
  • List of Countries
  • For 7 days
  • Water Temperature
  • Satellite Maps
  • Weather Map
  • Weather Widgets
  • user-avatar
    Login

    Hourly Weather Taydakovo

    Today, 18 June, Tuesday

    Time Temperature Precipitation Wind Pressure Humidity
    00:00 +16°C° 0 mm 2 mps 753 mmHg 81%
    01:00 +16°C° 0 mm 2 mps 753 mmHg 80%
    02:00 +16°C° 0 mm 2 mps 753 mmHg 79%
    03:00 +17°C° 0 mm 2 mps 753 mmHg 78%
    04:00 +17°C° 0 mm 2 mps 753 mmHg 79%
    05:00 +18°C° 0 mm 2 mps 753 mmHg 79%
    06:00 +18°C° 0 mm 2 mps 753 mmHg 79%
    07:00 +20°C° 0.1 mm 2 mps 753 mmHg 74%
    08:00 +21°C° 0.1 mm 2 mps 753 mmHg 68%
    09:00 +24°C° 0.1 mm 2 mps 753 mmHg 62%
    10:00 +24°C° 0.3 mm 2 mps 753 mmHg 61%
    11:00 +24°C° 0.3 mm 2 mps 752 mmHg 61%
    12:00 +25°C° 0.3 mm 2 mps 752 mmHg 60%
    13:00 +25°C° 0.4 mm 2 mps 752 mmHg 61%
    14:00 +25°C° 0.4 mm 3 mps 752 mmHg 61%
    15:00 +25°C° 0.4 mm 3 mps 752 mmHg 61%
    16:00 +25°C° 0.3 mm 3 mps 751 mmHg 66%
    17:00 +24°C° 0.3 mm 2 mps 751 mmHg 72%
    18:00 +24°C° 0.3 mm 2 mps 751 mmHg 77%
    19:00 +21°C° 0.4 mm 2 mps 751 mmHg 80%
    20:00 +20°C° 0.4 mm 2 mps 751 mmHg 83%
    21:00 +18°C° 0.4 mm 2 mps 751 mmHg 87%
    22:00 +17°C° 0 mm 2 mps 751 mmHg 88%
    23:00 +17°C° 0 mm 2 mps 751 mmHg 90%

    Tomorrow, 19 June, Wednesday

    Time Temperature Precipitation Wind Pressure Humidity
    00:00 +17°C° 0 mm 2 mps 751 mmHg 91%
    01:00 +16°C° 0 mm 2 mps 751 mmHg 91%
    02:00 +16°C° 0 mm 2 mps 751 mmHg 92%
    03:00 +16°C° 0 mm 2 mps 751 mmHg 92%
    04:00 +17°C° 0 mm 2 mps 751 mmHg 89%
    05:00 +18°C° 0 mm 2 mps 751 mmHg 86%
    06:00 +19°C° 0 mm 2 mps 751 mmHg 84%
    07:00 +20°C° 0.1 mm 2 mps 751 mmHg 78%
    08:00 +23°C° 0.1 mm 2 mps 751 mmHg 73%
    09:00 +24°C° 0.1 mm 2 mps 751 mmHg 67%
    10:00 +25°C° 0.2 mm 2 mps 751 mmHg 63%
    11:00 +25°C° 0.2 mm 3 mps 751 mmHg 59%
    12:00 +26°C° 0.2 mm 3 mps 751 mmHg 55%
    13:00 +26°C° 0.1 mm 3 mps 751 mmHg 56%
    14:00 +26°C° 0.1 mm 3 mps 751 mmHg 57%
    15:00 +26°C° 0.1 mm 4 mps 751 mmHg 58%
    16:00 +26°C° 0 mm 3 mps 751 mmHg 62%
    17:00 +25°C° 0 mm 3 mps 751 mmHg 66%
    18:00 +25°C° 0 mm 3 mps 751 mmHg 70%
    19:00 +22°C° 0 mm 3 mps 752 mmHg 74%
    20:00 +20°C° 0 mm 3 mps 752 mmHg 79%
    21:00 +19°C° 0 mm 3 mps 752 mmHg 84%
    22:00 +18°C° 0 mm 3 mps 752 mmHg 86%
    23:00 +18°C° 0 mm 3 mps 753 mmHg 88%

    Day after tomorrow, 20 June, Thursday

    Time Temperature Precipitation Wind Pressure Humidity
    00:00 +17°C° 0 mm 3 mps 753 mmHg 90%
    01:00 +17°C° 0 mm 3 mps 753 mmHg 91%
    02:00 +16°C° 0 mm 3 mps 753 mmHg 93%
    03:00 +16°C° 0 mm 3 mps 753 mmHg 94%
    04:00 +17°C° 0 mm 3 mps 754 mmHg 91%
    05:00 +18°C° 0 mm 3 mps 754 mmHg 87%
    06:00 +19°C° 0 mm 3 mps 754 mmHg 84%
    07:00 +21°C° 0 mm 3 mps 754 mmHg 78%
    08:00 +22°C° 0 mm 3 mps 755 mmHg 72%
    09:00 +25°C° 0 mm 3 mps 755 mmHg 66%
    10:00 +26°C° 0 mm 3 mps 755 mmHg 62%
    11:00 +26°C° 0 mm 3 mps 755 mmHg 58%
    12:00 +27°C° 0 mm 3 mps 755 mmHg 55%
    13:00 +27°C° 0 mm 3 mps 755 mmHg 54%
    14:00 +28°C° 0 mm 3 mps 755 mmHg 54%
    15:00 +28°C° 0 mm 3 mps 755 mmHg 53%
    16:00 +27°C° 0 mm 3 mps 755 mmHg 58%
    17:00 +27°C° 0 mm 3 mps 755 mmHg 62%
    18:00 +26°C° 0 mm 2 mps 755 mmHg 66%
    19:00 +24°C° 0 mm 2 mps 755 mmHg 69%
    20:00 +23°C° 0 mm 2 mps 756 mmHg 72%
    21:00 +20°C° 0 mm 2 mps 756 mmHg 75%
    22:00 +19°C° 0 mm 2 mps 756 mmHg 76%
    23:00 +19°C° 0 mm 2 mps 756 mmHg 78%

    21 June, Friday

    Time Temperature Precipitation Wind Pressure Humidity
    00:00 +18°C° 0 mm 2 mps 756 mmHg 80%
    01:00 +18°C° 0 mm 2 mps 756 mmHg 81%
    02:00 +18°C° 0 mm 2 mps 757 mmHg 82%
    03:00 +17°C° 0 mm 2 mps 757 mmHg 83%
    04:00 +18°C° 0 mm 2 mps 757 mmHg 81%
    05:00 +19°C° 0 mm 2 mps 757 mmHg 79%
    06:00 +20°C° 0 mm 2 mps 757 mmHg 77%
    07:00 +23°C° 0 mm 2 mps 757 mmHg 71%
    08:00 +24°C° 0 mm 2 mps 758 mmHg 66%
    09:00 +26°C° 0 mm 2 mps 758 mmHg 61%
    10:00 +26°C° 0 mm 2 mps 758 mmHg 58%
    11:00 +27°C° 0 mm 2 mps 758 mmHg 54%
    12:00 +28°C° 0 mm 2 mps 758 mmHg 51%
    13:00 +28°C° 0 mm 2 mps 758 mmHg 51%
    14:00 +28°C° 0 mm 2 mps 758 mmHg 50%
    15:00 +28°C° 0 mm 2 mps 758 mmHg 50%
    16:00 +28°C° 0 mm 2 mps 758 mmHg 55%
    17:00 +27°C° 0 mm 2 mps 757 mmHg 60%
    18:00 +26°C° 0 mm 2 mps 757 mmHg 65%
    19:00 +25°C° 0 mm 2 mps 758 mmHg 69%
    20:00 +23°C° 0 mm 1 mps 758 mmHg 73%
    21:00 +21°C° 0 mm 1 mps 758 mmHg 77%
    22:00 +21°C° 0 mm 1 mps 758 mmHg 79%
    23:00 +18°C° 0 mm 0 mps 758 mmHg 80%

    22 June, Saturday

    Time Temperature Precipitation Wind Pressure Humidity
    00:00 +18°C° 0 mm 0 mps 758 mmHg 81%
    01:00 +17°C° 0 mm 0 mps 758 mmHg 82%
    02:00 +17°C° 0 mm 0 mps 759 mmHg 83%
    03:00 +17°C° 0 mm 0 mps 759 mmHg 83%
    04:00 +18°C° 0 mm 0 mps 759 mmHg 80%
    05:00 +19°C° 0 mm 0 mps 759 mmHg 77%
    06:00 +20°C° 0 mm 0 mps 759 mmHg 74%
    07:00 +22°C° 0 mm 0 mps 759 mmHg 70%
    08:00 +23°C° 0 mm 0 mps 759 mmHg 65%
    09:00 +25°C° 0 mm 0 mps 759 mmHg 60%
    10:00 +25°C° 0 mm 0 mps 759 mmHg 56%
    11:00 +26°C° 0 mm 0 mps 759 mmHg 51%
    12:00 +27°C° 0 mm 0 mps 759 mmHg 47%
    13:00 +29°C° 0 mm 1 mps 759 mmHg 47%
    14:00 +29°C° 0 mm 1 mps 758 mmHg 46%
    15:00 +29°C° 0 mm 1 mps 758 mmHg 45%
    16:00 +29°C° 0 mm 1 mps 758 mmHg 49%
    17:00 +28°C° 0 mm 1 mps 758 mmHg 53%
    18:00 +28°C° 0 mm 1 mps 758 mmHg 57%
    19:00 +26°C° 0 mm 1 mps 758 mmHg 59%
    20:00 +24°C° 0 mm 1 mps 758 mmHg 61%
    21:00 +22°C° 0 mm 1 mps 758 mmHg 63%
    22:00 +22°C° 0 mm 1 mps 758 mmHg 65%
    23:00 +21°C° 0 mm 1 mps 758 mmHg 67%

    23 June, Sunday

    Time Temperature Precipitation Wind Pressure Humidity
    00:00 +20°C° 0 mm 1 mps 758 mmHg 69%
    01:00 +20°C° 0 mm 1 mps 758 mmHg 71%
    02:00 +20°C° 0 mm 1 mps 758 mmHg 72%
    03:00 +19°C° 0 mm 1 mps 758 mmHg 74%
    04:00 +21°C° 0 mm 1 mps 758 mmHg 72%
    05:00 +22°C° 0 mm 1 mps 759 mmHg 71%
    06:00 +23°C° 0 mm 1 mps 759 mmHg 69%
    07:00 +24°C° 0 mm 1 mps 759 mmHg 65%
    08:00 +26°C° 0 mm 1 mps 759 mmHg 60%
    09:00 +28°C° 0 mm 1 mps 758 mmHg 56%
    10:00 +28°C° 0 mm 1 mps 758 mmHg 52%
    11:00 +29°C° 0 mm 1 mps 758 mmHg 48%
    12:00 +30°C° 0 mm 1 mps 758 mmHg 44%
    13:00 +30°C° 0 mm 1 mps 758 mmHg 43%
    14:00 +30°C° 0 mm 1 mps 758 mmHg 43%
    15:00 +31°C° 0 mm 1 mps 757 mmHg 42%
    16:00 +30°C° 0 mm 1 mps 757 mmHg 47%
    17:00 +30°C° 0 mm 1 mps 757 mmHg 52%
    18:00 +29°C° 0 mm 1 mps 757 mmHg 57%
    19:00 +27°C° 0 mm 1 mps 757 mmHg 59%
    20:00 +23°C° 0 mm 0 mps 757 mmHg 62%
    21:00 +21°C° 0 mm 0 mps 757 mmHg 64%
    22:00 +21°C° 0 mm 0 mps 757 mmHg 66%
    23:00 +20°C° 0 mm 0 mps 757 mmHg 67%
    Show more